ACA233 LPMA-CYYT

Flight info

Callsign ACA233
Flight time 4h 38m
Altitude 40000
Route DEMZO DCT DOKAS/M084F400 DCT VMG/M074F270 H113 LM/M076F280 H125 LUKAL/M075F400 DCT 4440N DCT H4543 DCT H4647/N0492F400 DCT TIGOR DCT TEXED
Aircraft B772/H-SDE2E3FGHIJ5LORVWXY/LB1D1

Departure

Time 2026-04-23 16:20
Airport Cristiano Ronaldo International Airport (LPMA)

Arrival

Time 2026-04-23 20:59
Airport St. John's International Airport (CYYT)
Time Latitude Longitude Altitude Speed Heading
2026-04-23 15:48 32.69544 -16.77397 190 ft 0 kts 137°
2026-04-23 16:09 32.69541 -16.77393 190 ft 1 kts 137°
2026-04-23 16:09 32.69567 -16.77417 196 ft 3 kts 137°
2026-04-23 16:09 32.69682 -16.77548 225 ft 0 kts 138°
2026-04-23 16:10 32.69565 -16.77413 195 ft 8 kts 138°
2026-04-23 16:10 32.69586 -16.77430 201 ft 3 kts 139°
2026-04-23 16:10 32.69607 -16.77430 204 ft 0 kts 139°
2026-04-23 16:10 32.69593 -16.77420 201 ft 0 kts 139°
2026-04-23 16:11 32.69612 -16.77471 206 ft 4 kts 139°
2026-04-23 16:11 32.69591 -16.77451 204 ft 3 kts 140°
2026-04-23 16:11 32.69649 -16.77499 215 ft 0 kts 140°
2026-04-23 16:12 32.69645 -16.77495 214 ft 0 kts 140°
2026-04-23 16:12 32.69633 -16.77478 210 ft 4 kts 118°
2026-04-23 16:12 32.69629 -16.77442 206 ft 4 kts 81°
2026-04-23 16:12 32.69642 -16.77413 206 ft 2 kts 48°
2026-04-23 16:13 32.69646 -16.77409 206 ft 0 kts 44°
2026-04-23 16:16 32.69646 -16.77408 206 ft 0 kts 44°
2026-04-23 16:16 32.69662 -16.77390 206 ft 6 kts 43°
2026-04-23 16:17 32.69709 -16.77338 207 ft 12 kts 43°
2026-04-23 16:17 32.69784 -16.77252 208 ft 17 kts 50°
2026-04-23 16:17 32.69880 -16.77174 214 ft 16 kts 356°
2026-04-23 16:17 32.69981 -16.77178 221 ft 13 kts 359°
2026-04-23 16:18 32.70071 -16.77117 218 ft 19 kts 47°
2026-04-23 16:18 32.70190 -16.76968 211 ft 29 kts 42°
2026-04-23 16:18 32.70334 -16.76801 210 ft 20 kts 41°
2026-04-23 16:18 32.70443 -16.76682 213 ft 22 kts 44°
2026-04-23 16:19 32.70552 -16.76551 213 ft 24 kts 50°
2026-04-23 16:19 32.70671 -16.76468 212 ft 12 kts 64°
2026-04-23 16:19 32.70639 -16.76454 211 ft 8 kts 214°
2026-04-23 16:19 32.70588 -16.76507 210 ft 11 kts 222°
2026-04-23 16:20 32.70415 -16.76713 212 ft 75 kts 225°
2026-04-23 16:20 32.69852 -16.77372 240 ft 146 kts 226°
2026-04-23 16:20 32.69088 -16.78257 868 ft 155 kts 225°
2026-04-23 16:20 32.68276 -16.79108 1664 ft 162 kts 220°
2026-04-23 16:21 32.67211 -16.79714 2188 ft 183 kts 194°
2026-04-23 16:21 32.65856 -16.79645 2687 ft 211 kts 163°
2026-04-23 16:21 32.64605 -16.78609 3217 ft 236 kts 127°
2026-04-23 16:21 32.64058 -16.76726 3742 ft 257 kts 89°
2026-04-23 16:22 32.64411 -16.74597 4313 ft 275 kts 72°
2026-04-23 16:22 32.64983 -16.72413 5186 ft 282 kts 71°
2026-04-23 16:22 32.65669 -16.70232 6146 ft 283 kts 58°
2026-04-23 16:22 32.66988 -16.68513 6935 ft 286 kts 30°
2026-04-23 16:23 32.68811 -16.67704 7802 ft 283 kts
2026-04-23 16:23 32.70733 -16.67950 8655 ft 279 kts 335°
2026-04-23 16:23 32.72343 -16.69131 9534 ft 275 kts 316°
2026-04-23 16:23 32.73755 -16.70631 10460 ft 276 kts 314°
2026-04-23 16:24 32.75222 -16.72230 11000 ft 293 kts 314°
2026-04-23 16:24 32.76759 -16.73909 11504 ft 310 kts 314°
2026-04-23 16:24 32.78389 -16.75690 12015 ft 326 kts 314°
2026-04-23 16:24 32.80099 -16.77558 12531 ft 342 kts 314°
2026-04-23 16:25 32.81893 -16.79518 13053 ft 357 kts 314°
2026-04-23 16:25 32.83751 -16.81548 13525 ft 373 kts 314°
2026-04-23 16:25 32.85679 -16.83654 14222 ft 381 kts 314°
2026-04-23 16:25 32.87636 -16.85789 15148 ft 383 kts 314°
2026-04-23 16:26 32.89614 -16.87949 16081 ft 385 kts 314°
2026-04-23 16:26 32.91589 -16.90108 16834 ft 391 kts 314°
2026-04-23 16:26 32.93601 -16.92309 17543 ft 397 kts 314°
2026-04-23 16:26 32.95634 -16.94533 18302 ft 401 kts 314°
2026-04-23 16:27 32.97703 -16.96797 19130 ft 404 kts 314°
2026-04-23 16:27 32.99758 -16.99055 19908 ft 406 kts 313°
2026-04-23 16:27 33.01791 -17.01380 20592 ft 411 kts 313°
2026-04-23 16:27 33.03873 -17.03775 21277 ft 415 kts 313°
2026-04-23 16:28 33.05937 -17.06149 22016 ft 418 kts 313°
2026-04-23 16:28 33.08054 -17.08581 22741 ft 421 kts 313°
2026-04-23 16:28 33.10159 -17.11001 23398 ft 425 kts 313°
2026-04-23 16:28 33.12297 -17.13459 24004 ft 429 kts 313°
2026-04-23 16:29 33.14431 -17.15912 24791 ft 429 kts 313°
2026-04-23 16:29 33.16568 -17.18370 25544 ft 429 kts 313°
2026-04-23 16:29 33.18712 -17.20838 26206 ft 430 kts 313°
2026-04-23 16:29 33.20864 -17.23317 26813 ft 433 kts 313°
2026-04-23 16:30 33.23018 -17.25852 27447 ft 433 kts 309°
2026-04-23 16:30 33.24982 -17.28537 28024 ft 435 kts 308°
2026-04-23 16:30 33.26939 -17.31284 28665 ft 435 kts 307°
2026-04-23 16:30 33.28896 -17.34035 29357 ft 435 kts 307°
2026-04-23 16:31 33.30843 -17.36774 30004 ft 434 kts 307°
2026-04-23 16:31 33.32796 -17.39522 30594 ft 434 kts 307°
2026-04-23 16:31 33.34755 -17.42280 31166 ft 434 kts 307°
2026-04-23 16:31 33.36719 -17.45046 31872 ft 431 kts 307°
2026-04-23 16:32 33.38669 -17.47793 32647 ft 426 kts 307°
2026-04-23 16:32 33.40585 -17.50493 33364 ft 422 kts 307°
2026-04-23 16:32 33.42476 -17.53162 34008 ft 419 kts 307°
2026-04-23 16:32 33.44346 -17.55804 34578 ft 416 kts 307°
2026-04-23 16:33 33.46216 -17.58447 34998 ft 417 kts 307°
2026-04-23 16:33 33.48097 -17.61109 35346 ft 419 kts 307°
2026-04-23 16:33 33.49983 -17.63778 35719 ft 421 kts 307°
2026-04-23 16:33 33.51866 -17.66446 36202 ft 420 kts 307°
2026-04-23 16:34 33.53743 -17.69105 36794 ft 418 kts 306°
2026-04-23 16:34 33.55608 -17.71750 37254 ft 416 kts 306°
2026-04-23 16:34 33.57470 -17.74393 37599 ft 417 kts 306°
2026-04-23 16:34 33.59345 -17.77057 37864 ft 420 kts 306°
2026-04-23 16:35 33.61223 -17.79727 38131 ft 421 kts 306°
2026-04-23 16:35 33.63126 -17.82435 38458 ft 421 kts 306°
2026-04-23 16:35 33.64996 -17.85095 38812 ft 420 kts 306°
2026-04-23 16:35 33.66869 -17.87764 39078 ft 420 kts 306°
2026-04-23 16:36 33.68747 -17.90443 39216 ft 423 kts 306°
2026-04-23 16:36 33.70652 -17.93162 39349 ft 425 kts 306°
2026-04-23 16:36 33.72546 -17.95865 39587 ft 425 kts 306°
2026-04-23 16:36 33.74442 -17.98575 39868 ft 424 kts 306°
2026-04-23 16:37 33.76346 -18.01296 39979 ft 425 kts 306°
2026-04-23 16:37 33.78241 -18.04009 39998 ft 428 kts 306°
2026-04-23 16:37 33.82084 -18.09516 39989 ft 433 kts 306°
2026-04-23 16:38 33.85973 -18.15097 39989 ft 437 kts 306°
2026-04-23 16:38 33.89876 -18.20706 39994 ft 437 kts 306°
2026-04-23 16:39 33.93793 -18.26343 39991 ft 438 kts 306°
2026-04-23 16:39 33.97687 -18.31957 39991 ft 437 kts 306°
2026-04-23 16:40 34.01575 -18.37571 39993 ft 437 kts 306°
2026-04-23 16:40 34.05452 -18.43177 39984 ft 437 kts 306°
2026-04-23 16:41 34.09331 -18.48797 39974 ft 437 kts 306°
2026-04-23 16:41 34.13217 -18.54435 39979 ft 436 kts 306°
2026-04-23 16:42 34.17106 -18.60086 39987 ft 437 kts 306°
2026-04-23 16:42 34.20983 -18.65730 39980 ft 436 kts 306°
2026-04-23 16:43 34.24853 -18.71372 39991 ft 436 kts 306°
2026-04-23 16:43 34.28710 -18.77002 40001 ft 436 kts 306°
2026-04-23 16:44 34.32577 -18.82657 39982 ft 436 kts 306°
2026-04-23 16:44 34.36418 -18.88284 39981 ft 436 kts 306°
2026-04-23 16:45 34.40279 -18.93946 39975 ft 436 kts 306°
2026-04-23 16:45 34.44110 -18.99576 39975 ft 435 kts 306°
2026-04-23 16:46 34.47955 -19.05235 39957 ft 436 kts 306°
2026-04-23 16:46 34.51817 -19.10929 39974 ft 434 kts 306°
2026-04-23 16:47 34.55640 -19.16573 39961 ft 434 kts 306°
2026-04-23 16:47 34.59485 -19.22259 39976 ft 436 kts 306°
2026-04-23 16:48 34.63313 -19.27929 39958 ft 435 kts 306°
2026-04-23 16:48 34.67149 -19.33620 39959 ft 436 kts 306°
2026-04-23 16:49 34.70974 -19.39304 39955 ft 434 kts 306°
2026-04-23 16:49 34.74799 -19.44997 39952 ft 435 kts 306°
2026-04-23 16:50 34.78623 -19.50698 39942 ft 435 kts 306°
2026-04-23 16:50 34.82424 -19.56374 39940 ft 436 kts 306°
2026-04-23 16:51 34.86243 -19.62086 39948 ft 436 kts 306°
2026-04-23 16:51 34.90064 -19.67810 39958 ft 434 kts 306°
2026-04-23 16:52 34.93863 -19.73510 39956 ft 435 kts 306°
2026-04-23 16:52 34.97673 -19.79237 39958 ft 436 kts 306°
2026-04-23 16:53 35.01489 -19.84981 39948 ft 435 kts 306°
2026-04-23 16:53 35.05287 -19.90708 39933 ft 434 kts 306°
2026-04-23 16:54 35.09072 -19.96426 39945 ft 436 kts 306°
2026-04-23 16:54 35.12878 -20.02183 39958 ft 434 kts 306°
2026-04-23 16:55 35.16671 -20.07930 39945 ft 435 kts 306°
2026-04-23 16:55 35.20459 -20.13682 39947 ft 435 kts 306°
2026-04-23 16:56 35.24229 -20.19412 39943 ft 434 kts 306°
2026-04-23 16:56 35.27993 -20.25144 39944 ft 434 kts 306°
2026-04-23 16:57 35.31775 -20.30914 39936 ft 433 kts 306°
2026-04-23 16:57 35.35548 -20.36678 39939 ft 433 kts 306°
2026-04-23 16:58 35.39299 -20.42419 39943 ft 433 kts 306°
2026-04-23 16:58 35.43050 -20.48169 39932 ft 434 kts 306°
2026-04-23 16:59 35.46813 -20.53949 39940 ft 433 kts 306°
2026-04-23 16:59 35.50571 -20.59728 39942 ft 433 kts 306°
2026-04-23 17:00 35.54308 -20.65485 39926 ft 432 kts 305°
2026-04-23 17:00 35.58036 -20.71239 39939 ft 431 kts 305°
2026-04-23 17:01 35.61765 -20.77002 39949 ft 432 kts 305°
2026-04-23 17:01 35.65513 -20.82807 39927 ft 432 kts 305°
2026-04-23 17:02 35.69243 -20.88591 39931 ft 432 kts 305°
2026-04-23 17:02 35.72978 -20.94395 39935 ft 432 kts 306°
2026-04-23 17:03 35.76698 -21.00184 39950 ft 432 kts 306°
2026-04-23 17:03 35.80414 -21.05977 39915 ft 431 kts 305°
2026-04-23 17:04 35.84124 -21.11770 39944 ft 431 kts 306°
2026-04-23 17:04 35.87833 -21.17570 39924 ft 431 kts 306°
2026-04-23 17:05 35.91569 -21.23424 39934 ft 432 kts 306°
2026-04-23 17:05 35.95258 -21.29213 39919 ft 431 kts 306°
2026-04-23 17:06 35.98961 -21.35036 39927 ft 432 kts 306°
2026-04-23 17:06 36.02650 -21.40845 39927 ft 431 kts 306°
2026-04-23 17:07 36.06361 -21.46699 39922 ft 431 kts 306°
2026-04-23 17:07 36.10048 -21.52524 39906 ft 431 kts 306°
2026-04-23 17:08 36.13741 -21.58369 39919 ft 432 kts 306°
2026-04-23 17:08 36.17414 -21.64193 39911 ft 431 kts 306°
2026-04-23 17:09 36.21107 -21.70059 39940 ft 432 kts 305°
2026-04-23 17:09 36.24777 -21.75898 39925 ft 432 kts 305°
2026-04-23 17:10 36.28444 -21.81742 39921 ft 432 kts 305°
2026-04-23 17:10 36.32130 -21.87626 39926 ft 432 kts 305°
2026-04-23 17:11 36.35789 -21.93478 39917 ft 430 kts 305°
2026-04-23 17:11 36.39472 -21.99377 39917 ft 431 kts 305°
2026-04-23 17:12 36.43121 -22.05233 39907 ft 432 kts 306°
2026-04-23 17:12 36.46797 -22.11142 39906 ft 431 kts 305°
2026-04-23 17:13 36.50451 -22.17026 39901 ft 432 kts 306°
2026-04-23 17:13 36.54121 -22.22946 39904 ft 431 kts 306°
2026-04-23 17:14 36.57776 -22.28853 39880 ft 433 kts 306°
2026-04-23 17:14 36.61447 -22.34795 39893 ft 432 kts 306°
2026-04-23 17:15 36.65078 -22.40682 39886 ft 431 kts 306°
2026-04-23 17:15 36.68726 -22.46609 39868 ft 430 kts 306°
2026-04-23 17:16 36.72357 -22.52517 39882 ft 432 kts 305°
2026-04-23 17:16 36.76021 -22.58490 39879 ft 430 kts 306°
2026-04-23 17:17 36.79649 -22.64415 39878 ft 431 kts 306°
2026-04-23 17:17 36.83275 -22.70346 39878 ft 431 kts 305°
2026-04-23 17:18 36.88720 -22.79273 39873 ft 431 kts 305°
2026-04-23 17:19 36.92328 -22.85203 39878 ft 432 kts 305°
2026-04-23 17:19 36.95963 -22.91185 39880 ft 431 kts 305°
2026-04-23 17:20 36.99583 -22.97155 39874 ft 431 kts 305°
2026-04-23 17:21 37.06795 -23.09080 39851 ft 430 kts 305°
2026-04-23 17:21 37.12225 -23.18084 39865 ft 432 kts 305°
2026-04-23 17:22 37.17641 -23.27092 39863 ft 431 kts 305°
2026-04-23 17:23 37.22732 -23.36326 39852 ft 430 kts 296°
2026-04-23 17:24 37.25914 -23.46828 39863 ft 429 kts 290°
2026-04-23 17:24 37.28822 -23.57435 39857 ft 431 kts 290°
2026-04-23 17:25 37.31678 -23.68074 39863 ft 431 kts 289°
2026-04-23 17:26 37.35456 -23.82313 39864 ft 431 kts 289°
2026-04-23 17:27 37.38268 -23.92985 39851 ft 430 kts 289°
2026-04-23 17:27 37.40133 -24.00091 39870 ft 429 kts 289°
2026-04-23 17:28 37.41994 -24.07201 39850 ft 430 kts 289°
2026-04-23 17:28 37.43861 -24.14357 39853 ft 428 kts 289°
2026-04-23 17:29 37.45706 -24.21448 39869 ft 429 kts 289°
2026-04-23 17:30 37.48163 -24.30923 39840 ft 427 kts 289°
2026-04-23 17:30 37.51217 -24.42747 39861 ft 429 kts 289°
2026-04-23 17:31 37.53041 -24.49841 39835 ft 425 kts 289°
2026-04-23 17:31 37.54861 -24.56932 39830 ft 425 kts 289°
2026-04-23 17:32 37.56671 -24.64007 39846 ft 427 kts 289°
2026-04-23 17:32 37.58479 -24.71097 39849 ft 425 kts 289°
2026-04-23 17:33 37.60283 -24.78186 39841 ft 425 kts 289°
2026-04-23 17:33 37.62075 -24.85252 39855 ft 426 kts 289°
2026-04-23 17:34 37.63874 -24.92363 39832 ft 422 kts 289°
2026-04-23 17:35 37.66536 -25.02923 39847 ft 425 kts 289°
2026-04-23 17:35 37.69195 -25.13518 39856 ft 421 kts 289°
2026-04-23 17:36 37.70952 -25.20544 39850 ft 422 kts 289°
2026-04-23 17:36 37.72712 -25.27601 39833 ft 421 kts 289°
2026-04-23 17:37 37.74467 -25.34659 39833 ft 421 kts 289°
2026-04-23 17:38 37.77085 -25.45229 39826 ft 421 kts 289°
2026-04-23 17:38 37.78828 -25.52287 39851 ft 420 kts 289°
2026-04-23 17:39 37.80542 -25.59248 39825 ft 420 kts 289°
2026-04-23 17:39 37.82272 -25.66297 39873 ft 418 kts 289°
2026-04-23 17:40 37.84142 -25.73227 39869 ft 417 kts 294°
2026-04-23 17:40 37.87104 -25.79507 39841 ft 417 kts 306°
2026-04-23 17:41 37.90953 -25.84966 39852 ft 417 kts 310°
2026-04-23 17:41 37.96836 -25.93128 39838 ft 416 kts 310°
2026-04-23 17:42 38.02635 -26.01283 39828 ft 415 kts 309°
2026-04-23 17:43 38.06492 -26.06737 39813 ft 417 kts 309°
2026-04-23 17:43 38.10359 -26.12223 39821 ft 419 kts 309°
2026-04-23 17:44 38.14239 -26.17739 39850 ft 417 kts 309°
2026-04-23 17:44 38.20056 -26.26030 39800 ft 420 kts 309°
2026-04-23 17:45 38.25889 -26.34365 39845 ft 421 kts 310°
2026-04-23 17:46 38.31713 -26.42713 39826 ft 422 kts 309°
2026-04-23 17:46 38.35587 -26.48279 39793 ft 421 kts 309°
2026-04-23 17:47 38.39479 -26.53881 39826 ft 423 kts 309°
2026-04-23 17:48 38.45300 -26.62276 39809 ft 423 kts 310°
2026-04-23 17:48 38.49189 -26.67900 39806 ft 424 kts 309°
2026-04-23 17:49 38.53080 -26.73534 39827 ft 423 kts 309°
2026-04-23 17:49 38.56958 -26.79159 39826 ft 424 kts 309°
2026-04-23 17:50 38.60857 -26.84826 39830 ft 423 kts 309°
2026-04-23 17:50 38.66663 -26.93283 39812 ft 423 kts 309°
2026-04-23 17:51 38.70528 -26.98924 39789 ft 422 kts 309°
2026-04-23 17:52 38.76324 -27.07404 39794 ft 423 kts 309°
2026-04-23 17:52 38.81487 -27.16502 39799 ft 422 kts 302°
2026-04-23 17:53 38.86276 -27.25909 39790 ft 420 kts 302°
2026-04-23 17:54 38.89482 -27.32224 39790 ft 421 kts 302°
2026-04-23 17:54 38.94244 -27.41626 39786 ft 421 kts 302°
2026-04-23 17:55 38.99025 -27.51093 39778 ft 420 kts 303°
2026-04-23 17:56 39.02190 -27.57375 39788 ft 422 kts 302°
2026-04-23 17:56 39.06962 -27.66871 39781 ft 421 kts 302°
2026-04-23 17:57 39.10118 -27.73166 39780 ft 421 kts 302°
2026-04-23 17:58 39.14860 -27.82650 39765 ft 421 kts 302°
2026-04-23 17:58 39.18008 -27.88961 39783 ft 420 kts 302°
2026-04-23 17:59 39.21169 -27.95313 39767 ft 421 kts 302°
2026-04-23 17:59 39.24319 -28.01657 39769 ft 421 kts 302°
2026-04-23 18:00 39.27465 -28.08004 39758 ft 421 kts 302°
2026-04-23 18:00 39.30607 -28.14356 39773 ft 422 kts 302°
2026-04-23 18:01 39.33757 -28.20738 39761 ft 422 kts 302°
2026-04-23 18:01 39.36901 -28.27118 39769 ft 423 kts 302°
2026-04-23 18:02 39.39514 -28.32434 39762 ft 421 kts 302°
2026-04-23 18:02 39.43196 -28.39935 39762 ft 423 kts 302°
2026-04-23 18:03 39.46341 -28.46358 39779 ft 423 kts 302°
2026-04-23 18:03 39.49464 -28.52748 39762 ft 424 kts 302°
2026-04-23 18:04 39.52615 -28.59210 39762 ft 423 kts 301°
2026-04-23 18:04 39.55729 -28.65607 39768 ft 424 kts 301°
2026-04-23 18:05 39.58878 -28.72091 39775 ft 424 kts 301°
2026-04-23 18:05 39.62002 -28.78536 39776 ft 424 kts 301°
2026-04-23 18:06 39.65126 -28.84995 39784 ft 424 kts 301°
2026-04-23 18:06 39.68235 -28.91434 39767 ft 423 kts 301°
2026-04-23 18:07 39.71361 -28.97924 39772 ft 424 kts 301°
2026-04-23 18:07 39.74480 -29.04411 39766 ft 423 kts 301°
2026-04-23 18:08 39.77079 -29.09827 39779 ft 423 kts 301°
2026-04-23 18:08 39.80693 -29.17375 39767 ft 424 kts 301°
2026-04-23 18:09 39.83799 -29.23875 39755 ft 423 kts 301°
2026-04-23 18:09 39.86914 -29.30408 39756 ft 424 kts 301°
2026-04-23 18:10 39.89998 -29.36890 39757 ft 424 kts 301°
2026-04-23 18:10 39.93092 -29.43406 39762 ft 424 kts 301°
2026-04-23 18:11 39.96205 -29.49975 39773 ft 425 kts 301°
2026-04-23 18:11 39.99286 -29.56491 39760 ft 425 kts 301°
2026-04-23 18:12 40.02367 -29.63022 39755 ft 425 kts 301°
2026-04-23 18:12 40.05462 -29.69595 39758 ft 424 kts 300°
2026-04-23 18:13 40.08542 -29.76149 39764 ft 424 kts 300°
2026-04-23 18:13 40.11615 -29.82703 39774 ft 426 kts 300°
2026-04-23 18:14 40.14177 -29.88179 39764 ft 424 kts 300°
2026-04-23 18:14 40.17774 -29.95880 39761 ft 425 kts 300°
2026-04-23 18:15 40.20840 -30.02462 39751 ft 425 kts 300°
2026-04-23 18:15 40.23893 -30.09029 39752 ft 426 kts 300°
2026-04-23 18:16 40.26967 -30.15656 39751 ft 425 kts 300°
2026-04-23 18:16 40.30024 -30.22260 39747 ft 426 kts 300°
2026-04-23 18:17 40.34612 -30.32199 39740 ft 425 kts 300°
2026-04-23 18:17 40.37661 -30.38822 39749 ft 426 kts 300°
2026-04-23 18:18 40.40688 -30.45411 39747 ft 424 kts 300°
2026-04-23 18:18 40.43742 -30.52072 39736 ft 425 kts 300°
2026-04-23 18:19 40.46795 -30.58745 39731 ft 427 kts 300°
2026-04-23 18:19 40.49814 -30.65360 39740 ft 426 kts 299°
2026-04-23 18:20 40.52862 -30.72052 39749 ft 426 kts 299°
2026-04-23 18:20 40.55902 -30.78743 39743 ft 425 kts 299°
2026-04-23 18:21 40.58918 -30.85392 39739 ft 426 kts 299°
2026-04-23 18:21 40.61945 -30.92082 39752 ft 427 kts 299°
2026-04-23 18:22 40.64977 -30.98798 39744 ft 427 kts 299°
2026-04-23 18:22 40.67984 -31.05471 39734 ft 427 kts 299°
2026-04-23 18:23 40.72527 -31.15583 39739 ft 428 kts 299°
2026-04-23 18:24 40.77043 -31.25667 39735 ft 428 kts 298°
2026-04-23 18:25 40.81556 -31.35778 39727 ft 428 kts 299°
2026-04-23 18:25 40.84554 -31.42514 39722 ft 427 kts 299°
2026-04-23 18:26 40.87557 -31.49274 39719 ft 428 kts 299°
2026-04-23 18:26 40.90575 -31.56086 39721 ft 428 kts 299°
2026-04-23 18:27 40.93561 -31.62839 39710 ft 428 kts 298°
2026-04-23 18:27 40.96577 -31.69676 39724 ft 430 kts 298°
2026-04-23 18:28 40.99558 -31.76448 39723 ft 427 kts 298°
2026-04-23 18:28 41.02554 -31.83271 39717 ft 429 kts 298°
2026-04-23 18:29 41.05521 -31.90040 39714 ft 428 kts 298°
2026-04-23 18:29 41.08517 -31.96895 39724 ft 431 kts 298°
2026-04-23 18:30 41.11506 -32.03745 39731 ft 430 kts 298°
2026-04-23 18:30 41.14492 -32.10606 39723 ft 430 kts 298°
2026-04-23 18:31 41.17457 -32.17434 39722 ft 431 kts 298°
2026-04-23 18:31 41.20429 -32.24294 39722 ft 430 kts 298°
2026-04-23 18:32 41.23403 -32.31176 39717 ft 431 kts 298°
2026-04-23 18:32 41.26364 -32.38100 39727 ft 431 kts 297°
2026-04-23 18:33 41.29212 -32.45093 39725 ft 430 kts 297°
2026-04-23 18:33 41.32053 -32.52079 39724 ft 430 kts 296°
2026-04-23 18:34 41.34890 -32.59063 39718 ft 431 kts 297°
2026-04-23 18:34 41.37721 -32.66040 39735 ft 430 kts 296°
2026-04-23 18:35 41.40561 -32.73055 39735 ft 430 kts 296°
2026-04-23 18:35 41.43393 -32.80066 39737 ft 431 kts 296°
2026-04-23 18:36 41.46215 -32.87068 39738 ft 432 kts 296°
2026-04-23 18:36 41.49053 -32.94127 39722 ft 433 kts 296°
2026-04-23 18:37 41.51882 -33.01180 39733 ft 432 kts 296°
2026-04-23 18:37 41.54699 -33.08219 39740 ft 434 kts 296°
2026-04-23 18:38 41.57532 -33.15315 39740 ft 433 kts 296°
2026-04-23 18:38 41.60348 -33.22385 39724 ft 434 kts 296°
2026-04-23 18:39 41.63182 -33.29520 39729 ft 434 kts 296°
2026-04-23 18:39 41.65986 -33.36594 39725 ft 435 kts 296°
2026-04-23 18:40 41.68795 -33.43697 39712 ft 434 kts 296°
2026-04-23 18:40 41.71628 -33.50882 39724 ft 436 kts 296°
2026-04-23 18:41 41.74445 -33.58041 39714 ft 436 kts 296°
2026-04-23 18:41 41.77260 -33.65213 39727 ft 437 kts 295°
2026-04-23 18:42 41.80076 -33.72404 39744 ft 437 kts 295°
2026-04-23 18:42 41.82898 -33.79631 39729 ft 436 kts 295°
2026-04-23 18:43 41.85701 -33.86826 39730 ft 439 kts 295°
2026-04-23 18:43 41.88501 -33.94031 39735 ft 439 kts 295°
2026-04-23 18:44 41.91318 -34.01300 39725 ft 440 kts 295°
2026-04-23 18:44 41.94104 -34.08503 39720 ft 438 kts 295°
2026-04-23 18:45 41.96919 -34.15802 39735 ft 440 kts 295°
2026-04-23 18:45 41.99715 -34.23069 39725 ft 441 kts 295°
2026-04-23 18:46 42.02515 -34.30365 39725 ft 438 kts 295°
2026-04-23 18:46 42.05303 -34.37648 39718 ft 439 kts 295°
2026-04-23 18:47 42.08080 -34.44922 39721 ft 441 kts 295°
2026-04-23 18:47 42.10871 -34.52248 39722 ft 439 kts 295°
2026-04-23 18:48 42.13654 -34.59577 39724 ft 441 kts 295°
2026-04-23 18:48 42.16437 -34.66920 39739 ft 441 kts 294°
2026-04-23 18:49 42.19211 -34.74260 39737 ft 442 kts 294°
2026-04-23 18:49 42.21978 -34.81599 39739 ft 440 kts 295°
2026-04-23 18:50 42.24281 -34.87723 39742 ft 442 kts 294°
2026-04-23 18:50 42.27513 -34.96341 39738 ft 442 kts 294°
2026-04-23 18:51 42.30272 -35.03715 39736 ft 441 kts 294°
2026-04-23 18:51 42.33026 -35.11097 39737 ft 441 kts 294°
2026-04-23 18:52 42.35786 -35.18512 39738 ft 442 kts 294°
2026-04-23 18:52 42.38554 -35.25971 39741 ft 445 kts 294°
2026-04-23 18:53 42.41304 -35.33398 39735 ft 442 kts 294°
2026-04-23 18:53 42.44062 -35.40868 39737 ft 445 kts 294°
2026-04-23 18:54 42.46807 -35.48324 39749 ft 446 kts 295°
2026-04-23 18:54 42.49564 -35.55829 39735 ft 445 kts 295°
2026-04-23 18:55 42.52314 -35.63338 39740 ft 446 kts 294°
2026-04-23 18:55 42.55057 -35.70845 39740 ft 446 kts 294°
2026-04-23 18:56 42.57339 -35.77107 39751 ft 446 kts 294°
2026-04-23 18:56 42.60541 -35.85918 39744 ft 446 kts 294°
2026-04-23 18:57 42.63262 -35.93425 39749 ft 446 kts 294°
2026-04-23 18:57 42.66000 -36.01001 39727 ft 447 kts 294°
2026-04-23 18:58 42.68739 -36.08600 39747 ft 447 kts 294°
2026-04-23 18:58 42.71449 -36.16140 39756 ft 449 kts 294°
2026-04-23 18:59 42.74182 -36.23763 39738 ft 447 kts 294°
2026-04-23 18:59 42.76900 -36.31365 39735 ft 448 kts 294°
2026-04-23 19:00 42.79605 -36.38950 39744 ft 449 kts 294°
2026-04-23 19:00 42.82319 -36.46584 39751 ft 448 kts 294°
2026-04-23 19:01 42.85034 -36.54241 39747 ft 450 kts 293°
2026-04-23 19:01 42.87746 -36.61908 39746 ft 449 kts 294°
2026-04-23 19:02 42.89986 -36.68262 39749 ft 451 kts 293°
2026-04-23 19:02 42.93156 -36.77272 39752 ft 449 kts 293°
2026-04-23 19:03 42.95845 -36.84941 39753 ft 450 kts 293°
2026-04-23 19:03 42.98527 -36.92609 39742 ft 452 kts 292°
2026-04-23 19:04 43.01230 -37.00359 39751 ft 451 kts 292°
2026-04-23 19:04 43.03896 -37.08024 39757 ft 451 kts 292°
2026-04-23 19:05 43.06583 -37.15773 39745 ft 451 kts 292°
2026-04-23 19:05 43.09264 -37.23528 39745 ft 452 kts 292°
2026-04-23 19:06 43.11945 -37.31301 39742 ft 454 kts 293°
2026-04-23 19:06 43.14611 -37.39056 39742 ft 453 kts 292°
2026-04-23 19:07 43.17298 -37.46892 39740 ft 454 kts 293°
2026-04-23 19:07 43.19950 -37.54649 39736 ft 453 kts 293°
2026-04-23 19:08 43.22633 -37.62519 39738 ft 456 kts 293°
2026-04-23 19:08 43.25281 -37.70308 39747 ft 455 kts 292°
2026-04-23 19:09 43.27937 -37.78143 39751 ft 454 kts 292°
2026-04-23 19:09 43.30605 -37.86038 39745 ft 457 kts 292°
2026-04-23 19:10 43.33264 -37.93929 39739 ft 456 kts 292°
2026-04-23 19:10 43.35912 -38.01808 39739 ft 458 kts 292°
2026-04-23 19:11 43.38570 -38.09744 39735 ft 457 kts 292°
2026-04-23 19:11 43.41227 -38.17696 39737 ft 458 kts 292°
2026-04-23 19:12 43.43440 -38.24339 39743 ft 461 kts 292°
2026-04-23 19:12 43.46522 -38.33619 39735 ft 460 kts 292°
2026-04-23 19:13 43.49176 -38.41635 39748 ft 461 kts 292°
2026-04-23 19:13 43.51831 -38.49675 39746 ft 462 kts 292°
2026-04-23 19:14 43.54479 -38.57722 39739 ft 462 kts 292°
2026-04-23 19:14 43.57122 -38.65777 39744 ft 463 kts 292°
2026-04-23 19:15 43.59763 -38.73850 39729 ft 465 kts 292°
2026-04-23 19:15 43.62415 -38.81982 39746 ft 465 kts 292°
2026-04-23 19:16 43.65036 -38.90043 39740 ft 463 kts 292°
2026-04-23 19:16 43.67669 -38.98166 39750 ft 465 kts 291°
2026-04-23 19:17 43.71624 -39.10414 39744 ft 465 kts 292°
2026-04-23 19:17 43.74246 -39.18565 39743 ft 466 kts 292°
2026-04-23 19:18 43.76872 -39.26752 39738 ft 468 kts 292°
2026-04-23 19:18 43.79508 -39.34999 39749 ft 467 kts 291°
2026-04-23 19:19 43.83427 -39.47307 39756 ft 466 kts 291°
2026-04-23 19:20 43.87338 -39.59645 39752 ft 468 kts 291°
2026-04-23 19:20 43.89924 -39.67837 39761 ft 468 kts 291°
2026-04-23 19:21 43.93832 -39.80264 39762 ft 468 kts 291°
2026-04-23 19:22 43.96416 -39.88513 39765 ft 469 kts 290°
2026-04-23 19:22 44.00402 -40.00881 39768 ft 472 kts 296°
2026-04-23 19:23 44.04157 -40.08351 39772 ft 476 kts 303°
2026-04-23 19:24 44.10101 -40.19424 39771 ft 477 kts 303°
2026-04-23 19:24 44.15956 -40.30536 39761 ft 476 kts 303°
2026-04-23 19:25 44.23729 -40.45449 39763 ft 478 kts 303°
2026-04-23 19:26 44.29562 -40.56715 39764 ft 478 kts 303°
2026-04-23 19:27 44.39239 -40.75515 39768 ft 478 kts 302°
2026-04-23 19:28 44.46984 -40.90654 39767 ft 481 kts 302°
2026-04-23 19:29 44.52790 -41.02056 39757 ft 481 kts 302°
2026-04-23 19:30 44.58611 -41.13532 39753 ft 482 kts 302°
2026-04-23 19:31 44.64409 -41.25009 39753 ft 483 kts 303°
2026-04-23 19:31 44.68267 -41.32671 39745 ft 483 kts 302°
2026-04-23 19:32 44.72118 -41.40340 39758 ft 484 kts 303°
2026-04-23 19:32 44.76003 -41.48097 39753 ft 484 kts 303°
2026-04-23 19:33 44.79836 -41.55769 39750 ft 483 kts 303°
2026-04-23 19:33 44.85642 -41.67433 39757 ft 485 kts 302°
2026-04-23 19:34 44.89501 -41.75212 39734 ft 484 kts 302°
2026-04-23 19:35 44.95266 -41.86871 39743 ft 486 kts 302°
2026-04-23 19:35 44.99115 -41.94682 39740 ft 486 kts 302°
2026-04-23 19:36 45.02947 -42.02479 39746 ft 486 kts 302°
2026-04-23 19:36 45.06803 -42.10346 39752 ft 487 kts 302°
2026-04-23 19:37 45.10641 -42.18200 39743 ft 487 kts 302°
2026-04-23 19:37 45.14476 -42.26067 39749 ft 488 kts 302°
2026-04-23 19:38 45.18306 -42.33946 39739 ft 489 kts 302°
2026-04-23 19:38 45.22154 -42.41885 39745 ft 489 kts 302°
2026-04-23 19:39 45.25979 -42.49797 39742 ft 489 kts 302°
2026-04-23 19:39 45.29831 -42.57790 39736 ft 490 kts 302°
2026-04-23 19:40 45.33651 -42.65736 39737 ft 491 kts 301°
2026-04-23 19:40 45.37489 -42.73741 39743 ft 490 kts 301°
2026-04-23 19:41 45.41316 -42.81750 39740 ft 492 kts 301°
2026-04-23 19:41 45.44508 -42.88444 39740 ft 492 kts 301°
2026-04-23 19:42 45.48953 -42.97903 39734 ft 492 kts 297°
2026-04-23 19:42 45.51740 -43.06675 39732 ft 489 kts 289°
2026-04-23 19:43 45.54226 -43.15720 39732 ft 490 kts 289°
2026-04-23 19:43 45.56676 -43.24731 39736 ft 490 kts 289°
2026-04-23 19:44 45.59121 -43.33789 39741 ft 491 kts 289°
2026-04-23 19:44 45.61556 -43.42856 39740 ft 491 kts 289°
2026-04-23 19:45 45.63993 -43.51981 39731 ft 492 kts 289°
2026-04-23 19:45 45.66416 -43.61089 39738 ft 492 kts 289°
2026-04-23 19:46 45.68823 -43.70177 39731 ft 492 kts 288°
2026-04-23 19:46 45.71233 -43.79310 39732 ft 493 kts 288°
2026-04-23 19:47 45.73251 -43.86990 39729 ft 494 kts 288°
2026-04-23 19:47 45.76043 -43.97650 39727 ft 494 kts 288°
2026-04-23 19:48 45.78446 -44.06869 39726 ft 495 kts 288°
2026-04-23 19:48 45.80838 -44.16080 39725 ft 495 kts 288°
2026-04-23 19:49 45.83226 -44.25313 39726 ft 496 kts 288°
2026-04-23 19:49 45.85601 -44.34533 39717 ft 496 kts 288°
2026-04-23 19:50 45.87984 -44.43819 39741 ft 497 kts 288°
2026-04-23 19:50 45.90355 -44.53099 39731 ft 497 kts 288°
2026-04-23 19:51 45.92736 -44.62454 39738 ft 499 kts 288°
2026-04-23 19:51 45.95096 -44.71763 39731 ft 499 kts 287°
2026-04-23 19:52 45.97071 -44.79582 39745 ft 499 kts 287°
2026-04-23 19:52 45.99807 -44.90459 39739 ft 500 kts 287°
2026-04-23 19:53 46.02169 -44.99894 39739 ft 501 kts 287°
2026-04-23 19:53 46.04517 -45.09307 39754 ft 502 kts 287°
2026-04-23 19:54 46.06848 -45.18692 39760 ft 502 kts 287°
2026-04-23 19:54 46.09193 -45.28176 39748 ft 502 kts 287°
2026-04-23 19:55 46.11521 -45.37630 39748 ft 504 kts 287°
2026-04-23 19:55 46.13851 -45.47130 39766 ft 504 kts 287°
2026-04-23 19:56 46.16173 -45.56636 39749 ft 505 kts 287°
2026-04-23 19:56 46.18481 -45.66130 39746 ft 505 kts 286°
2026-04-23 19:57 46.20797 -45.75693 39761 ft 506 kts 286°
2026-04-23 19:57 46.22729 -45.83705 39766 ft 506 kts 286°
2026-04-23 19:58 46.25402 -45.94834 39749 ft 508 kts 286°
2026-04-23 19:58 46.27700 -46.04447 39771 ft 508 kts 286°
2026-04-23 19:59 46.29992 -46.14082 39763 ft 509 kts 286°
2026-04-23 19:59 46.32280 -46.23737 39777 ft 508 kts 286°
2026-04-23 20:00 46.34570 -46.33444 39769 ft 510 kts 286°
2026-04-23 20:00 46.36838 -46.43100 39780 ft 510 kts 286°
2026-04-23 20:01 46.39108 -46.52805 39781 ft 510 kts 286°
2026-04-23 20:01 46.41356 -46.62462 39771 ft 511 kts 286°
2026-04-23 20:02 46.43615 -46.72212 39769 ft 512 kts 285°
2026-04-23 20:02 46.45869 -46.81980 39787 ft 511 kts 285°
2026-04-23 20:03 46.48113 -46.91750 39783 ft 511 kts 285°
2026-04-23 20:03 46.50272 -47.01526 39806 ft 512 kts 283°
2026-04-23 20:04 46.52146 -47.11436 39797 ft 512 kts 282°
2026-04-23 20:04 46.54007 -47.21395 39784 ft 512 kts 282°
2026-04-23 20:05 46.55543 -47.29665 39799 ft 513 kts 282°
2026-04-23 20:05 46.57695 -47.41312 39802 ft 513 kts 282°
2026-04-23 20:06 46.59523 -47.51260 39803 ft 513 kts 282°
2026-04-23 20:06 46.61354 -47.61279 39820 ft 513 kts 282°
2026-04-23 20:07 46.63177 -47.71307 39809 ft 514 kts 282°
2026-04-23 20:07 46.64984 -47.81307 39813 ft 515 kts 281°
2026-04-23 20:08 46.66791 -47.91356 39819 ft 515 kts 281°
2026-04-23 20:08 46.68586 -48.01402 39814 ft 515 kts 281°
2026-04-23 20:09 46.70383 -48.11511 39810 ft 516 kts 282°
2026-04-23 20:09 46.72161 -48.21570 39807 ft 517 kts 281°
2026-04-23 20:10 46.73642 -48.29991 39822 ft 516 kts 282°
2026-04-23 20:10 46.75705 -48.41784 39813 ft 517 kts 281°
2026-04-23 20:11 46.77461 -48.51891 39808 ft 517 kts 281°
2026-04-23 20:11 46.79214 -48.62039 39817 ft 518 kts 282°
2026-04-23 20:12 46.80961 -48.72208 39823 ft 519 kts 281°
2026-04-23 20:12 46.82700 -48.82389 39813 ft 519 kts 281°
2026-04-23 20:13 46.84423 -48.92535 39814 ft 519 kts 281°
2026-04-23 20:13 46.86148 -49.02755 39804 ft 519 kts 281°
2026-04-23 20:14 46.87865 -49.12984 39792 ft 519 kts 281°
2026-04-23 20:14 46.89570 -49.23207 39823 ft 522 kts 281°
2026-04-23 20:15 46.91272 -49.33475 39795 ft 522 kts 281°
2026-04-23 20:15 46.92974 -49.43798 39819 ft 521 kts 281°
2026-04-23 20:16 46.94649 -49.54027 39824 ft 522 kts 281°
2026-04-23 20:16 46.96330 -49.64345 39803 ft 522 kts 281°
2026-04-23 20:17 46.98003 -49.74688 39808 ft 523 kts 280°
2026-04-23 20:17 46.99663 -49.85009 39789 ft 522 kts 280°
2026-04-23 20:18 47.01321 -49.95388 39807 ft 524 kts 280°
2026-04-23 20:18 47.02965 -50.05741 39801 ft 525 kts 280°
2026-04-23 20:19 47.04598 -50.16084 39803 ft 525 kts 280°
2026-04-23 20:19 47.06232 -50.26503 39820 ft 524 kts 280°
2026-04-23 20:20 47.07851 -50.36892 39817 ft 525 kts 280°
2026-04-23 20:20 47.09462 -50.47300 39807 ft 525 kts 280°
2026-04-23 20:21 47.11063 -50.57709 39799 ft 525 kts 281°
2026-04-23 20:21 47.12654 -50.68122 39790 ft 524 kts 279°
2026-04-23 20:22 47.14240 -50.78569 39797 ft 524 kts 280°
2026-04-23 20:22 47.15808 -50.88962 39791 ft 524 kts 279°
2026-04-23 20:23 47.17369 -50.99382 39803 ft 525 kts 280°
2026-04-23 20:23 47.18926 -51.09841 39789 ft 524 kts 280°
2026-04-23 20:24 47.20471 -51.20297 39805 ft 526 kts 280°
2026-04-23 20:24 47.22012 -51.30790 39800 ft 525 kts 280°
2026-04-23 20:25 47.23539 -51.41257 39798 ft 526 kts 280°
2026-04-23 20:25 47.25058 -51.51748 39788 ft 526 kts 279°
2026-04-23 20:26 47.26570 -51.62259 39798 ft 527 kts 280°
2026-04-23 20:26 47.28080 -51.72826 39808 ft 527 kts 279°
2026-04-23 20:27 47.29571 -51.83339 39802 ft 528 kts 279°
2026-04-23 20:27 47.31039 -51.93748 39800 ft 512 kts 279°
2026-04-23 20:28 47.32455 -52.03868 39817 ft 505 kts 279°
2026-04-23 20:28 47.33860 -52.13990 39796 ft 505 kts 279°
2026-04-23 20:29 47.35258 -52.24121 39799 ft 505 kts 279°
2026-04-23 20:29 47.36639 -52.34200 39779 ft 506 kts 279°
2026-04-23 20:30 47.38028 -52.44419 39809 ft 513 kts 279°
2026-04-23 20:30 47.40141 -52.60073 39785 ft 527 kts 280°
2026-04-23 20:31 47.42617 -52.70253 39775 ft 524 kts 297°
2026-04-23 20:31 47.44517 -52.74732 39774 ft 513 kts 305°
2026-04-23 20:31 47.46832 -52.78742 39792 ft 512 kts 314°
2026-04-23 20:32 47.52563 -52.85074 39773 ft 519 kts 333°
2026-04-23 20:32 47.59362 -52.88744 39785 ft 525 kts 351°
2026-04-23 20:33 47.66612 -52.89434 39057 ft 536 kts
2026-04-23 20:33 47.70253 -52.88663 37934 ft 524 kts 17°
2026-04-23 20:33 47.73687 -52.87139 36933 ft 506 kts 26°
2026-04-23 20:34 47.76808 -52.85006 35963 ft 490 kts 35°
2026-04-23 20:34 47.79590 -52.82383 35096 ft 473 kts 43°
2026-04-23 20:34 47.82068 -52.79309 34356 ft 457 kts 51°
2026-04-23 20:34 47.84176 -52.75943 33524 ft 441 kts 58°
2026-04-23 20:35 47.85939 -52.72343 32596 ft 425 kts 65°
2026-04-23 20:35 47.87359 -52.68593 31670 ft 411 kts 71°
2026-04-23 20:35 47.88442 -52.64792 30750 ft 397 kts 77°
2026-04-23 20:35 47.89218 -52.60957 29791 ft 385 kts 83°
2026-04-23 20:36 47.89710 -52.57097 28784 ft 374 kts 88°
2026-04-23 20:36 47.89922 -52.53352 27791 ft 364 kts 94°
2026-04-23 20:36 47.89883 -52.49653 26787 ft 355 kts 98°
2026-04-23 20:36 47.89610 -52.46069 25783 ft 346 kts 103°
2026-04-23 20:37 47.89122 -52.42639 24788 ft 338 kts 108°
2026-04-23 20:37 47.88437 -52.39368 23867 ft 330 kts 113°
2026-04-23 20:37 47.87575 -52.36277 22977 ft 324 kts 117°
2026-04-23 20:37 47.86554 -52.33384 22108 ft 318 kts 122°
2026-04-23 20:38 47.85379 -52.30663 21246 ft 315 kts 126°
2026-04-23 20:38 47.84055 -52.28120 20360 ft 312 kts 131°
2026-04-23 20:38 47.82637 -52.25706 19443 ft 311 kts 132°
2026-04-23 20:38 47.81223 -52.23312 18514 ft 310 kts 133°
2026-04-23 20:39 47.79813 -52.20925 17552 ft 309 kts 133°
2026-04-23 20:39 47.78401 -52.18538 16584 ft 309 kts 133°
2026-04-23 20:39 47.76945 -52.16238 15602 ft 309 kts 141°
2026-04-23 20:39 47.75165 -52.14532 14615 ft 309 kts 155°
2026-04-23 20:40 47.73148 -52.13605 13623 ft 310 kts 171°
2026-04-23 20:40 47.70997 -52.13526 12612 ft 312 kts 186°
2026-04-23 20:40 47.68945 -52.14327 11771 ft 309 kts 201°
2026-04-23 20:40 47.67128 -52.15927 11003 ft 305 kts 217°
2026-04-23 20:41 47.65673 -52.18192 10239 ft 303 kts 232°
2026-04-23 20:41 47.64700 -52.20891 9467 ft 301 kts 248°
2026-04-23 20:41 47.64111 -52.23831 8693 ft 297 kts 253°
2026-04-23 20:41 47.63587 -52.26740 7916 ft 293 kts 254°
2026-04-23 20:42 47.63070 -52.29622 7132 ft 288 kts 255°
2026-04-23 20:42 47.62564 -52.32441 6503 ft 279 kts 255°
2026-04-23 20:42 47.62248 -52.35175 6232 ft 261 kts 268°
2026-04-23 20:42 47.62257 -52.37766 5992 ft 246 kts 270°
2026-04-23 20:43 47.62128 -52.40230 5666 ft 237 kts 255°
2026-04-23 20:43 47.61652 -52.42621 5840 ft 246 kts 253°
2026-04-23 20:43 47.61159 -52.45028 5860 ft 245 kts 253°
2026-04-23 20:43 47.60661 -52.47451 5862 ft 244 kts 253°
2026-04-23 20:44 47.60168 -52.49853 5865 ft 244 kts 253°
2026-04-23 20:44 47.59676 -52.52241 5860 ft 244 kts 253°
2026-04-23 20:44 47.59129 -52.54639 5855 ft 245 kts 249°
2026-04-23 20:44 47.58456 -52.56932 5852 ft 243 kts 245°
2026-04-23 20:45 47.57652 -52.59135 5854 ft 244 kts 240°
2026-04-23 20:45 47.56713 -52.61253 5856 ft 244 kts 236°
2026-04-23 20:45 47.55668 -52.63222 5855 ft 246 kts 231°
2026-04-23 20:45 47.54506 -52.65064 5855 ft 246 kts 226°
2026-04-23 20:46 47.53228 -52.66768 5854 ft 246 kts 221°
2026-04-23 20:46 47.51850 -52.68309 5852 ft 247 kts 216°
2026-04-23 20:46 47.50406 -52.69653 5849 ft 248 kts 212°
2026-04-23 20:46 47.48861 -52.70827 5852 ft 249 kts 207°
2026-04-23 20:47 47.47258 -52.71795 5853 ft 250 kts 202°
2026-04-23 20:47 47.45610 -52.72552 5855 ft 251 kts 197°
2026-04-23 20:47 47.43890 -52.73105 5854 ft 252 kts 192°
2026-04-23 20:47 47.42142 -52.73432 5855 ft 253 kts 187°
2026-04-23 20:48 47.40384 -52.73531 5855 ft 254 kts 182°
2026-04-23 20:48 47.38614 -52.73399 5850 ft 256 kts 178°
2026-04-23 20:48 47.36862 -52.73039 5865 ft 257 kts 172°
2026-04-23 20:48 47.35114 -52.72440 5858 ft 258 kts 166°
2026-04-23 20:49 47.33543 -52.71129 5847 ft 264 kts 137°
2026-04-23 20:49 47.32581 -52.68823 5848 ft 270 kts 107°
2026-04-23 20:49 47.32510 -52.66097 5848 ft 270 kts 76°
2026-04-23 20:49 47.33363 -52.63683 5855 ft 269 kts 45°
2026-04-23 20:50 47.34854 -52.62146 5725 ft 261 kts 24°
2026-04-23 20:50 47.36533 -52.60983 5382 ft 261 kts 21°
2026-04-23 20:50 47.38168 -52.59884 5127 ft 259 kts 21°
2026-04-23 20:50 47.39798 -52.58789 4842 ft 258 kts 21°
2026-04-23 20:51 47.41447 -52.57682 4578 ft 256 kts 21°
2026-04-23 20:51 47.43069 -52.56592 4309 ft 255 kts 21°
2026-04-23 20:51 47.44673 -52.55512 4048 ft 254 kts 21°
2026-04-23 20:51 47.46262 -52.54443 3822 ft 248 kts 20°
2026-04-23 20:52 47.47825 -52.53388 3503 ft 242 kts 20°
2026-04-23 20:52 47.49339 -52.52368 3136 ft 239 kts 20°
2026-04-23 20:52 47.50816 -52.51371 2993 ft 230 kts 20°
2026-04-23 20:52 47.52245 -52.50405 2998 ft 220 kts 19°
2026-04-23 20:53 47.53625 -52.49477 2989 ft 219 kts 19°
2026-04-23 20:53 47.55021 -52.48607 2989 ft 216 kts 10°
2026-04-23 20:53 47.56550 -52.48447 2987 ft 212 kts 354°
2026-04-23 20:53 47.58025 -52.48563 2986 ft 211 kts 351°
2026-04-23 20:54 47.59452 -52.48705 2989 ft 187 kts 351°
2026-04-23 20:54 47.60772 -52.48841 2985 ft 184 kts 351°
2026-04-23 20:54 47.62026 -52.49070 2990 ft 178 kts 336°
2026-04-23 20:54 47.62998 -52.50097 2979 ft 171 kts 307°
2026-04-23 20:55 47.63518 -52.51593 2976 ft 162 kts 281°
2026-04-23 20:55 47.63524 -52.53236 2971 ft 159 kts 265°
2026-04-23 20:55 47.63415 -52.54870 2977 ft 157 kts 265°
2026-04-23 20:55 47.63336 -52.56485 2830 ft 157 kts 266°
2026-04-23 20:56 47.63263 -52.58090 2612 ft 155 kts 266°
2026-04-23 20:56 47.63189 -52.59679 2403 ft 155 kts 266°
2026-04-23 20:56 47.63115 -52.61241 2188 ft 148 kts 266°
2026-04-23 20:56 47.63045 -52.62737 1991 ft 144 kts 266°
2026-04-23 20:57 47.62976 -52.64227 1789 ft 143 kts 266°
2026-04-23 20:57 47.62909 -52.65655 1588 ft 137 kts 267°
2026-04-23 20:57 47.62843 -52.67040 1364 ft 134 kts 266°
2026-04-23 20:57 47.62779 -52.68420 1184 ft 133 kts 266°
2026-04-23 20:58 47.62715 -52.69756 997 ft 129 kts 266°
2026-04-23 20:58 47.62651 -52.71114 830 ft 132 kts 266°
2026-04-23 20:58 47.62553 -52.72505 747 ft 136 kts 266°
2026-04-23 20:58 47.62508 -52.73806 524 ft 117 kts 269°
2026-04-23 20:59 47.62468 -52.74882 452 ft 87 kts 268°
2026-04-23 20:59 47.62439 -52.75560 473 ft 25 kts 264°
2026-04-23 20:59 47.62431 -52.75705 481 ft 14 kts 265°